Location: Stockholm
(59.3330°N, 18.0500°E)
Time: 08:11:20
(UTC+01:00)

FENGYUN 1C DEB - Pass Details

Date: 13 December 2023
Orbit: 850 x 2580 km, 98.6° (Epoch: 26 November)

Event Time Altitude Azimuth Distance (km) Brightness Sun altitude
Exits shadow 20:46:59 23° 35° (NE) 3,509 ? -42.6°
Maximum altitude 20:50:26 27° 10° (N) 3,474 ? -43.0°
Drops below altitude 10° 21:00:09 10° 321° (NW) 5,095 ? -44.0°
Sets 21:04:42 0° 312° (NW) 6,229 ? -44.5°
